Tacoma, WA
on Friday, November 9, 2012

Friday
Previous Day Next Day
Daily Summary
 ActualAverage (KSEA)Record (KSEA)
Temperature
Mean Temperature °F 47°F  
Max Temperature 47°F 52°F 64°F (1997)
Min Temperature 26°F 41°F 27°F (1948)
Degree Days
Heating Degree Days 28 18  
Month to date heating degree days 155  
Since 1 July heating degree days 752  
Cooling Degree Days 0 0  
Month to date cooling degree days 0  
Year to date cooling degree days 189  
Moisture
Dew Point 29°F   
Average Humidity 90    
Maximum Humidity 100    
Minimum Humidity 50    
Precipitation
Precipitation 0.00 in 0.21 in 2.95 in (1990)
Month to date precipitation 1.82  
Year to date precipitation 27.39  
Snow
Snow 0.00 in in in ()
Month to date snowfall  
Since 1 July snowfall  
Snow Depth in   
Wind
Wind Speed 1 mph   
Max Wind Speed 8 mph   
Max Gust Speed mph   
Visibility 6 miles   
Events Fog   

Key: T is trace of precipitation, MM is missing value
Source: NWS Daily Summary
Time(PST)TemperatureDew PointHumidity Pressure Visibility Wind DirectionWind SpeedGust SpeedPrecipitationEvents Conditions
12:58 AM 30.9°F 30.0°F 96% 29.87 in 10.0 miles SW 1.2 mph - N/A   Clear
1:58 AM 28.8°F 28.0°F 97% 29.88 in 10.0 miles WSW 1.2 mph - N/A   Clear
2:23 AM 30.2°F 28.4°F 93% 29.86 in 2.0 miles South 2.3 mph - N/A   Clear
2:28 AM 30.2°F 28.4°F 93% 29.86 in 1.5 miles SSE 1.2 mph - N/A   Clear
2:33 AM 28.4°F 28.4°F 100% 29.86 in 3.0 miles Calm Calm - N/A   Clear
2:58 AM 28.4°F 27.9°F 98% 29.88 in 10.0 miles South 2.3 mph - N/A   Clear
3:58 AM 27.5°F 27.0°F 98% 29.88 in 10.0 miles South 4.6 mph - N/A   Clear
4:58 AM 27.7°F 27.1°F 98% 29.89 in 10.0 miles Calm Calm - N/A   Clear
5:58 AM 26.6°F 26.2°F 99% 29.90 in 10.0 miles South 1.2 mph - N/A   Clear
6:13 AM 28.4°F 26.6°F 93% 29.88 in 1.8 miles Variable 1.2 mph - N/A   Clear
6:18 AM 28.4°F 28.4°F 100% 29.88 in 1.5 miles South 1.2 mph - N/A   Clear
6:28 AM 26.6°F 26.6°F 100% 29.88 in 2.5 miles Calm Calm - N/A   Clear
6:33 AM 26.6°F 26.6°F 100% 29.88 in 4.0 miles Calm Calm - N/A   Clear
6:53 AM 28.4°F 26.6°F 93% 29.88 in 2.5 miles Calm Calm - N/A   Clear
6:58 AM 28.4°F 26.6°F 93% 29.91 in 1.2 miles Calm Calm - N/A   Clear
7:03 AM 28.4°F 26.6°F 93% 29.89 in 1.2 miles Calm Calm - N/A   Clear
7:08 AM 28.4°F 26.6°F 93% 29.89 in 1.8 miles Calm Calm - N/A   Clear
7:13 AM 28.4°F 28.4°F 100% 29.89 in 1.0 miles Calm Calm - N/A   Clear
7:18 AM 28.4°F 28.4°F 100% 29.89 in 0.5 miles Calm Calm - N/A Fog Light Freezing Fog
7:23 AM 28.4°F 28.4°F 100% 29.89 in 0.8 miles Calm Calm - N/A   Clear
7:28 AM 28.4°F 28.4°F 100% 29.89 in 0.8 miles North 1.2 mph - N/A   Clear
7:33 AM 28.4°F 28.4°F 100% 29.89 in 0.5 miles Calm Calm - N/A Fog Light Freezing Fog
7:38 AM 28.4°F 28.4°F 100% 29.89 in 0.2 miles Calm Calm - N/A Fog Light Freezing Fog
7:43 AM 28.4°F 28.4°F 100% 29.90 in 0.2 miles Calm Calm - N/A Fog Light Freezing Fog
7:48 AM 28.4°F 28.4°F 100% 29.90 in 0.5 miles South 2.3 mph - N/A Fog Light Freezing Fog
7:53 AM 28.4°F 28.4°F 100% 29.90 in 0.8 miles SSW 1.2 mph - N/A   Clear
7:58 AM 28.4°F 28.4°F 100% 29.92 in 4.0 miles SSW 2.3 mph - N/A   Clear
8:03 AM 28.4°F 28.4°F 100% 29.90 in 2.0 miles South 1.2 mph - N/A   Clear
8:13 AM 28.4°F 28.4°F 100% 29.90 in 6.0 miles South 1.2 mph - N/A   Clear
8:58 AM 32.9°F 32.5°F 99% 29.92 in 10.0 miles Calm Calm - N/A   Clear
9:58 AM 40.5°F 40.1°F 99% 29.92 in 10.0 miles Variable 1.2 mph - N/A   Clear
10:58 AM 45.9°F 33.1°F 61% 29.92 in 10.0 miles NE 8.1 mph - N/A   Clear
11:58 AM 47.1°F 33.8°F 60% 29.92 in 10.0 miles North 4.6 mph - N/A   Scattered Clouds
12:58 PM 45.7°F 32.7°F 61% 29.91 in 10.0 miles NNE 6.9 mph - N/A   Overcast
1:58 PM 47.7°F 33.1°F 57% 29.90 in 10.0 miles Variable 2.3 mph - N/A   Mostly Cloudy
2:58 PM 46.6°F 28.9°F 50% 29.90 in 10.0 miles North 5.8 mph - N/A   Clear
3:58 PM 45.0°F 28.9°F 53% 29.90 in 10.0 miles NE 3.5 mph - N/A   Clear
4:58 PM 42.1°F 29.3°F 61% 29.91 in 10.0 miles NE 2.3 mph - N/A   Clear
5:58 PM 38.1°F 28.9°F 70% 29.93 in 10.0 miles Calm Calm - N/A   Clear
6:58 PM 31.1°F 28.2°F 89% 29.94 in 10.0 miles South 2.3 mph - N/A   Clear
7:58 PM 30.0°F 28.2°F 93% 29.94 in 10.0 miles SSE 1.2 mph - N/A   Clear
8:58 PM 28.6°F 26.6°F 92% 29.96 in 10.0 miles SE 1.2 mph - N/A   Clear
9:58 PM 27.7°F 26.1°F 94% 29.96 in 10.0 miles South 3.5 mph - N/A   Clear
10:58 PM 27.7°F 26.8°F 96% 29.97 in 10.0 miles South 1.2 mph - N/A   Clear
11:58 PM 26.8°F 25.5°F 95% 29.98 in 10.0 miles Calm Calm - N/A   Clear
Moon Phase
Nov. 09 Nov. 13 Nov. 20 Nov. 28 Dec. 06
Sunrise:07:05 AM (PST) Moon Rise:01:52 AM (PST)11/9
Sunset:04:41 PM (PST) Moon Set:02:12 PM (PST)11/9

Copyright © 2014 The Weather Underground, Inc.